User: anonymous   Login
Location: Unspecified
(0.0000°N, 0.0000°E)
Time: 12:35:31
(UTC+00:00)
Language:

Kosmos-1634 - Orbit

View from above orbital plane
View from above orbital plane
View from above satellite
View from above satellite

Ground track
Ground track

The orbit data is extracted from the following two-line orbital elements,

1 15597U 85022A   18113.97535456 +.00000036 +00000-0 +21324-4 0  9997
2 15597 082.9385 261.8436 0036735 062.0525 058.1553 13.75064888661198
Epoch (UTC): 23 April 2018 23:24:30
Eccentricity: 0.0036735
inclination: 82.9385°
perigee height: 954 km
apogee height: 1008 km
right ascension of ascending node: 261.8436°
argument of perigee: 62.0525°
revolutions per day: 13.75064888
mean anomaly at epoch: 58.1553°
orbit number at epoch: 66119

The dashed part of the orbit path shows where the satellite is in the earth's shadow,  

DLR